Flag for Western Sahara Weather past 2 weeks in El Aaiún, Western Sahara

Now
72 °F

Sunny.


Feels Like: 75 °F
Forecast: 67 / 83 °F
Wind: 22 mph from Northeast

Location: Laayoune/Hassan Isl

Current Time: Jul 2, 2015 at 10:03:09 AM

Latest Report: Jul 2, 2015 at 9:00 AM


Visibility: 10 mi

Pressure: 30.04 "Hg

Humidity: 65%

Dew point: 59 °F

Location of El AaiúnLocation

Historic Weather in El Aaiún — Graph

°F

El Aaiún temperature yesterday

Maximum temperature yesterday: 84 °F (at 2:00 PM)
Minimum temperature yesterday: 68 °F (at 1:00 AM)
Average temperature yesterday: 74 °F

Past Weeks' High & Low Weather Summary

 TemperatureHumidityPressure
High91 °F (Jun 29, 2:00 PM)88% (Jun 21, 3:00 AM)30.15 "Hg (Jun 21, 3:00 AM)
Low64 °F (Jun 19, 5:00 AM)33% (Jun 20, 3:00 PM)29.74 "Hg (Jul 1, 6:15 AM)
Average73 °F64%30.06 "Hg
* Reported Jun 17 8:00 AM — Jul 2 8:00 AM, El Aaiún, Weather by CustomWeather, © 2015

Note: Actual official high and low records may vary slightly from our data, if they occured in-between our weather recording intervals... More about our weather records

Advertising

El Aaiún weather history for previous 24 hours

 ConditionsComfort  
Time TempWeatherWind HumidityBarometerVisibility
8:00 AM
Thu, Jul 2
70 °FScattered clouds.22 mph69%30.04 "Hg1 mi
7:00 AM68 °FPassing clouds.21 mph73%30.01 "HgN/A
6:00 AM68 °FPassing clouds.18 mph73%30.01 "HgN/A
5:00 AM66 °FMild.18 mph83%30.01 "Hg5 mi
4:00 AM68 °FMild.20 mph78%30.01 "Hg5 mi
3:00 AM68 °FPassing clouds.17 mph78%30.04 "Hg5 mi
2:00 AM68 °FPassing clouds.17 mph78%30.04 "Hg5 mi
1:00 AM68 °FPassing clouds.16 mph78%30.04 "Hg5 mi
12:00 AM68 °FPassing clouds.16 mph78%30.07 "Hg5 mi
11:00 PM
Wed, Jul 1
70 °FPassing clouds.16 mph73%30.07 "Hg5 mi
10:00 PM70 °FPassing clouds.20 mph73%30.07 "Hg5 mi
9:00 PM72 °FPassing clouds.21 mph73%30.07 "Hg5 mi
8:00 PM73 °FSunny.21 mph65%30.04 "Hg10 mi
7:00 PM77 °FSunny.21 mph57%30.01 "Hg10 mi
6:00 PM79 °FSunny.20 mph54%30.01 "Hg10 mi
5:00 PM82 °FSunny.21 mph48%29.98 "Hg10 mi
4:00 PM82 °FSunny.21 mph45%29.98 "Hg10 mi
3:00 PM84 °FSunny.21 mph43%30.01 "Hg10 mi
2:00 PM84 °FSunny.18 mph43%30.01 "Hg10 mi
1:00 PM82 °FSunny.17 mph45%30.04 "Hg10 mi
12:00 PM82 °FSunny.18 mph48%30.04 "Hg10 mi
11:00 AM79 °FPassing clouds.17 mph54%30.04 "HgN/A
10:00 AM75 °FScattered clouds.17 mph61%30.04 "HgN/A
Weather by CustomWeather, © 2015

See weather overviewHow to use our weather pages